| time (UTC) | temp F | wind direction | speed MPH | gust MPH | rain 1hr in | rain 24hr in | rain mn in | humidity % | barometer mb |
| 20260503175004 | 55 | 223 | 8.0 | 17.0 | 0.00 | 0.08 | 0.08 | 42 | 1014.8 |
| 20260503174507 | 55 | 229 | 2.0 | 14.0 | 0.00 | 0.08 | 0.08 | 45 | 1014.9 |
| 20260503174006 | 54 | 271 | 3.0 | 17.0 | 0.00 | 0.08 | 0.08 | 42 | 1015.0 |
| 20260503173503 | 54 | 268 | 6.0 | 17.0 | 0.00 | 0.08 | 0.08 | 41 | 1015.2 |
| 20260503173008 | 54 | 283 | 8.0 | 16.0 | 0.00 | 0.08 | 0.08 | 38 | 1015.0 |
| 20260503172505 | 54 | 5 | 7.0 | 14.0 | 0.00 | 0.08 | 0.08 | 39 | 1015.1 |
| 20260503172003 | 53 | 290 | 2.0 | 14.0 | 0.01 | 0.08 | 0.08 | 41 | 1015.3 |
| 20260503171508 | 53 | 162 | 7.0 | 18.0 | 0.01 | 0.08 | 0.08 | 41 | 1015.4 |
| 20260503171003 | 53 | 170 | 6.0 | 18.0 | 0.01 | 0.08 | 0.08 | 40 | 1015.4 |
| 20260503170504 | 53 | 284 | 6.0 | 15.0 | 0.01 | 0.08 | 0.08 | 41 | 1015.5 |
| 20260503150503 | 49 | 209 | 5.0 | 13.0 | 0.01 | 0.07 | 0.07 | 44 | 1016.4 |
| 20260503131005 | 42 | 216 | 2.0 | 8.0 | 0.03 | 0.04 | 0.04 | 74 | 1017.0 |
| 20260503110504 | 29 | 343 | 0.0 | 0.0 | 0.00 | 0.00 | 0.00 | 94 | 1016.0 |
| 20260503090504 | 29 | 343 | 0.0 | 0.0 | 0.00 | 0.00 | 0.00 | 93 | 1015.4 |
| 20260503081523 | 30 | 343 | 0.0 | 0.0 | 0.00 | 0.00 | 0.00 | 92 | 1015.5 |
| 20260503081007 | 31 | 343 | 0.0 | 0.0 | 0.00 | 0.00 | 0.00 | 92 | 1015.4 |
| 20260503080507 | 31 | 343 | 0.0 | 0.0 | 0.00 | 0.00 | 0.00 | 92 | 1015.4 |
| 20260503072505 | 32 | 343 | 0.0 | 0.0 | 0.00 | 0.00 | 0.00 | 92 | 1015.2 |
| 20260503072013 | 32 | 343 | 0.0 | 0.0 | 0.00 | 0.00 | 0.00 | 92 | 1015.3 |
| 20260503071518 | 32 | 343 | 0.0 | 0.0 | 0.00 | 0.00 | 0.00 | 92 | 1015.2 |
| 20260503071005 | 32 | 343 | 0.0 | 0.0 | 0.00 | 0.00 | 0.00 | 92 | 1015.3 |
| 20260503070507 | 32 | 343 | 0.0 | 0.0 | 0.00 | 0.00 | 0.00 | 92 | 1015.3 |
| 20260503055009 | 33 | 343 | 0.0 | 0.0 | 0.00 | 0.00 | 0.00 | 91 | 1015.4 |
| 20260503054520 | 33 | 343 | 0.0 | 0.0 | 0.00 | 0.00 | 0.00 | 91 | 1015.4 |
| 20260503054006 | 33 | 343 | 0.0 | 0.0 | 0.00 | 0.00 | 0.00 | 91 | 1015.5 |
| 20260503053508 | 33 | 343 | 0.0 | 0.0 | 0.00 | 0.00 | 0.00 | 91 | 1015.5 |
| 20260503053023 | 33 | 343 | 0.0 | 0.0 | 0.00 | 0.00 | 0.00 | 91 | 1015.6 |
| 20260503052002 | 33 | 343 | 0.0 | 0.0 | 0.00 | 0.00 | 0.00 | 90 | 1015.6 |
| 20260503051511 | 33 | 343 | 0.0 | 0.0 | 0.00 | 0.00 | 0.00 | 90 | 1015.6 |
| 20260503045004 | 33 | 343 | 0.0 | 0.0 | 0.00 | 0.00 | 0.00 | 90 | 1015.7 |
| 20260503044508 | 33 | 343 | 0.0 | 0.0 | 0.00 | 0.00 | 0.00 | 90 | 1015.7 |
| 20260503044003 | 33 | 343 | 0.0 | 0.0 | 0.00 | 0.00 | 0.00 | 90 | 1015.7 |
| 20260503043502 | 33 | 343 | 0.0 | 0.0 | 0.00 | 0.00 | 0.00 | 90 | 1015.7 |
| 20260503043029 | 33 | 343 | 0.0 | 0.0 | 0.00 | 0.00 | 0.00 | 89 | 1015.8 |
| 20260503042506 | 33 | 343 | 0.0 | 0.0 | 0.00 | 0.00 | 0.00 | 89 | 1015.8 |
| 20260503042003 | 33 | 343 | 0.0 | 0.0 | 0.00 | 0.00 | 0.00 | 88 | 1015.8 |
| 20260503041507 | 33 | 343 | 0.0 | 0.0 | 0.00 | 0.00 | 0.00 | 88 | 1015.8 |
| 20260503041007 | 33 | 343 | 0.0 | 0.0 | 0.00 | 0.00 | 0.00 | 88 | 1015.9 |
| 20260503040504 | 33 | 343 | 0.0 | 0.0 | 0.00 | 0.00 | 0.00 | 88 | 1015.8 |
| 20260503040008 | 33 | 343 | 0.0 | 0.0 | 0.00 | 0.00 | 0.00 | 88 | 1015.8 |
| 20260503035003 | 33 | 343 | 0.0 | 0.0 | 0.00 | 0.00 | 0.00 | 87 | 1015.9 |
| 20260503034003 | 34 | 343 | 0.0 | 0.0 | 0.00 | 0.00 | 0.00 | 86 | 1015.8 |
| 20260503033504 | 34 | 343 | 0.0 | 0.0 | 0.00 | 0.00 | 0.00 | 86 | 1015.8 |
| 20260503033016 | 34 | 343 | 0.0 | 0.0 | 0.00 | 0.00 | 0.00 | 85 | 1015.8 |
| 20260503032504 | 34 | 343 | 0.0 | 0.0 | 0.00 | 0.00 | 0.00 | 85 | 1015.8 |
| 20260503032002 | 35 | 343 | 0.0 | 0.0 | 0.00 | 0.00 | 0.00 | 84 | 1015.8 |
| 20260503031508 | 35 | 343 | 0.0 | 0.0 | 0.00 | 0.00 | 0.00 | 84 | 1015.8 |
| 20260503031002 | 35 | 343 | 0.0 | 0.0 | 0.00 | 0.00 | 0.00 | 84 | 1015.9 |
| 20260503030501 | 36 | 343 | 0.0 | 0.0 | 0.00 | 0.00 | 0.00 | 84 | 1015.9 |
| 20260503030007 | 36 | 343 | 0.0 | 0.0 | 0.00 | 0.00 | 0.00 | 83 | 1015.9 |
| 20260503025503 | 36 | 343 | 0.0 | 0.0 | 0.00 | 0.00 | 0.00 | 82 | 1015.9 |
| 20260503025003 | 36 | 343 | 0.0 | 0.0 | 0.00 | 0.00 | 0.00 | 82 | 1015.9 |
| 20260503024516 | 37 | 343 | 0.0 | 0.0 | 0.00 | 0.00 | 0.00 | 82 | 1015.9 |
| 20260503024004 | 37 | 343 | 0.0 | 0.0 | 0.00 | 0.00 | 0.00 | 82 | 1015.9 |
| 20260503023505 | 37 | 343 | 0.0 | 0.0 | 0.00 | 0.00 | 0.00 | 81 | 1016.0 |
| 20260503023006 | 37 | 343 | 0.0 | 0.0 | 0.00 | 0.00 | 0.00 | 81 | 1016.0 |
| 20260503022503 | 37 | 343 | 0.0 | 0.0 | 0.00 | 0.00 | 0.00 | 81 | 1016.1 |
| 20260503022004 | 37 | 343 | 0.0 | 0.0 | 0.00 | 0.00 | 0.00 | 80 | 1016.1 |
| 20260503021524 | 37 | 343 | 0.0 | 0.0 | 0.00 | 0.00 | 0.00 | 79 | 1016.1 |
| 20260503021003 | 37 | 343 | 0.0 | 0.0 | 0.00 | 0.00 | 0.00 | 78 | 1016.1 |
| 20260503020502 | 37 | 343 | 0.0 | 0.0 | 0.00 | 0.00 | 0.00 | 78 | 1016.0 |
| 20260503020007 | 38 | 343 | 0.0 | 0.0 | 0.00 | 0.00 | 0.00 | 78 | 1016.1 |
| 20260503015506 | 38 | 343 | 0.0 | 0.0 | 0.00 | 0.00 | 0.00 | 77 | 1016.0 |
| 20260503015004 | 38 | 343 | 0.0 | 0.0 | 0.00 | 0.00 | 0.00 | 75 | 1016.0 |
| 20260503014505 | 38 | 343 | 0.0 | 0.0 | 0.00 | 0.00 | 0.00 | 73 | 1016.0 |
| 20260503014003 | 38 | 343 | 0.0 | 0.0 | 0.00 | 0.00 | 0.00 | 72 | 1016.0 |
| 20260503013503 | 38 | 343 | 0.0 | 1.0 | 0.00 | 0.00 | 0.00 | 72 | 1016.0 |
| 20260503013008 | 39 | 343 | 0.0 | 1.0 | 0.00 | 0.00 | 0.00 | 72 | 1016.0 |
| 20260503012503 | 39 | 343 | 0.0 | 1.0 | 0.00 | 0.00 | 0.00 | 71 | 1016.0 |
| 20260503012003 | 39 | 343 | 0.0 | 1.0 | 0.00 | 0.00 | 0.00 | 71 | 1016.0 |
| 20260503011506 | 39 | 343 | 0.0 | 1.0 | 0.00 | 0.00 | 0.00 | 70 | 1016.0 |
| 20260503011007 | 39 | 343 | 0.0 | 2.0 | 0.00 | 0.00 | 0.00 | 70 | 1015.9 |
| 20260503010504 | 39 | 343 | 0.0 | 2.0 | 0.00 | 0.00 | 0.00 | 70 | 1015.9 |
| 20260503010006 | 40 | 321 | 0.0 | 4.0 | 0.00 | 0.00 | 0.00 | 70 | 1016.0 |
| 20260503005504 | 40 | 312 | 1.0 | 4.0 | 0.00 | 0.00 | 0.00 | 69 | 1015.9 |
| 20260503005003 | 40 | 315 | 1.0 | 4.0 | 0.00 | 0.00 | 0.00 | 69 | 1015.9 |
| 20260503004508 | 40 | 319 | 0.0 | 8.0 | 0.00 | 0.00 | 0.00 | 69 | 1015.8 |
| 20260503004004 | 40 | 325 | 2.0 | 8.0 | 0.00 | 0.00 | 0.00 | 68 | 1015.7 |
| 20260503003503 | 40 | 15 | 3.0 | 9.0 | 0.00 | 0.00 | 0.00 | 68 | 1015.7 |
| 20260503003011 | 40 | 336 | 3.0 | 9.0 | 0.00 | 0.00 | 0.00 | 68 | 1015.6 |
| 20260503002503 | 40 | 5 | 2.0 | 6.0 | 0.00 | 0.00 | 0.00 | 68 | 1015.5 |
| 20260503002003 | 40 | 324 | 1.0 | 4.0 | 0.00 | 0.00 | 0.00 | 68 | 1015.4 |
| 20260503001505 | 41 | 360 | 1.0 | 5.0 | 0.00 | 0.00 | 0.00 | 67 | 1015.3 |
| 20260503001004 | 41 | 335 | 1.0 | 5.0 | 0.00 | 0.00 | 0.00 | 67 | 1015.4 |
| 20260503000503 | 41 | 321 | 1.0 | 5.0 | 0.00 | 0.00 | 0.00 | 67 | 1015.3 |
| 20260503000009 | 41 | 322 | 1.0 | 5.0 | 0.00 | 0.00 | 0.00 | 67 | 1015.2 |
| 20260502235503 | 41 | 346 | 2.0 | 5.0 | 0.00 | 0.00 | 0.00 | 67 | 1015.2 |
| 20260502235005 | 41 | 360 | 1.0 | 5.0 | 0.00 | 0.00 | 0.00 | 67 | 1015.2 |
| 20260502234507 | 41 | 307 | 2.0 | 5.0 | 0.00 | 0.00 | 0.00 | 67 | 1015.2 |
| 20260502234003 | 41 | 338 | 3.0 | 5.0 | 0.00 | 0.00 | 0.00 | 67 | 1015.1 |
| 20260502233503 | 41 | 329 | 2.0 | 4.0 | 0.00 | 0.00 | 0.00 | 68 | 1015.1 |
| 20260502233007 | 41 | 285 | 0.0 | 7.0 | 0.00 | 0.00 | 0.00 | 67 | 1015.1 |
| 20260502232503 | 41 | 360 | 2.0 | 7.0 | 0.00 | 0.00 | 0.00 | 67 | 1015.1 |
| 20260502232003 | 41 | 296 | 1.0 | 7.0 | 0.00 | 0.00 | 0.00 | 68 | 1015.1 |
| 20260502231513 | 41 | 331 | 1.0 | 7.0 | 0.00 | 0.00 | 0.00 | 68 | 1015.1 |
| 20260502231003 | 41 | 286 | 1.0 | 9.0 | 0.00 | 0.00 | 0.00 | 68 | 1015.1 |
| 20260502230504 | 41 | 314 | 2.0 | 9.0 | 0.00 | 0.00 | 0.00 | 68 | 1015.1 |
| 20260502230009 | 41 | 287 | 4.0 | 9.0 | 0.00 | 0.00 | 0.00 | 67 | 1015.2 |
| 20260502225504 | 41 | 309 | 5.0 | 9.0 | 0.00 | 0.00 | 0.00 | 67 | 1015.2 |
| 20260502225004 | 41 | 328 | 2.0 | 5.0 | 0.00 | 0.00 | 0.00 | 70 | 1015.2 |
| 20260502224505 | 41 | 305 | 1.0 | 7.0 | 0.00 | 0.00 | 0.00 | 70 | 1015.2 |
| 20260502224005 | 41 | 331 | 3.0 | 7.0 | 0.00 | 0.00 | 0.00 | 70 | 1015.2 |
| 20260502223020 | 41 | 329 | 2.0 | 8.0 | 0.00 | 0.00 | 0.00 | 71 | 1015.1 |
| 20260502222510 | 41 | 271 | 4.0 | 7.0 | 0.00 | 0.00 | 0.00 | 70 | 1015.1 |
| 20260502222011 | 41 | 310 | 1.0 | 7.0 | 0.00 | 0.00 | 0.00 | 71 | 1015.2 |
| 20260502221521 | 41 | 311 | 1.0 | 5.0 | 0.00 | 0.00 | 0.00 | 71 | 1015.2 |
| 20260502221007 | 41 | 318 | 1.0 | 4.0 | 0.00 | 0.00 | 0.00 | 72 | 1015.2 |
| 20260502220511 | 41 | 335 | 1.0 | 7.0 | 0.00 | 0.00 | 0.00 | 71 | 1015.2 |
| 20260502220025 | 41 | 344 | 2.0 | 7.0 | 0.00 | 0.00 | 0.00 | 70 | 1015.2 |
| 20260502215507 | 41 | 327 | 3.0 | 9.0 | 0.00 | 0.00 | 0.00 | 70 | 1015.1 |
| 20260502215010 | 41 | 315 | 2.0 | 9.0 | 0.00 | 0.00 | 0.00 | 70 | 1015.1 |
| 20260502214523 | 41 | 337 | 3.0 | 8.0 | 0.00 | 0.00 | 0.00 | 70 | 1015.1 |
| 20260502213023 | 42 | 319 | 2.0 | 11.0 | 0.00 | 0.00 | 0.00 | 69 | 1015.0 |
| 20260502212508 | 42 | 333 | 3.0 | 11.0 | 0.00 | 0.00 | 0.00 | 69 | 1014.9 |
| 20260502212009 | 42 | 352 | 4.0 | 11.0 | 0.00 | 0.00 | 0.00 | 68 | 1014.9 |
| 20260502211522 | 42 | 308 | 5.0 | 11.0 | 0.00 | 0.00 | 0.00 | 68 | 1014.7 |
| 20260502211009 | 42 | 315 | 3.0 | 10.0 | 0.00 | 0.00 | 0.00 | 68 | 1014.7 |
| 20260502210508 | 43 | 317 | 4.0 | 10.0 | 0.00 | 0.00 | 0.00 | 68 | 1014.6 |
| 20260502210023 | 43 | 309 | 3.0 | 12.0 | 0.00 | 0.00 | 0.00 | 67 | 1014.6 |
| 20260502205510 | 44 | 335 | 5.0 | 13.0 | 0.00 | 0.00 | 0.00 | 67 | 1014.6 |
| 20260502205012 | 43 | 294 | 7.0 | 13.0 | 0.00 | 0.00 | 0.00 | 69 | 1014.7 |
| 20260502204533 | 42 | 20 | 4.0 | 13.0 | 0.00 | 0.00 | 0.00 | 69 | 1014.7 |
| 20260502204007 | 42 | 348 | 5.0 | 11.0 | 0.00 | 0.00 | 0.00 | 68 | 1014.7 |
| 20260502203509 | 43 | 21 | 5.0 | 10.0 | 0.00 | 0.00 | 0.00 | 69 | 1014.8 |
| 20260502203023 | 43 | 325 | 3.0 | 11.0 | 0.00 | 0.00 | 0.00 | 72 | 1014.9 |
| 20260502201526 | 41 | 326 | 6.0 | 12.0 | 0.00 | 0.00 | 0.00 | 73 | 1014.9 |
| 20260502201007 | 41 | 42 | 4.0 | 13.0 | 0.00 | 0.00 | 0.00 | 74 | 1015.0 |
| 20260502200511 | 41 | 322 | 7.0 | 13.0 | 0.00 | 0.00 | 0.00 | 76 | 1015.0 |
| 20260502200040 | 41 | 360 | 6.0 | 13.0 | 0.00 | 0.00 | 0.00 | 77 | 1015.0 |
| 20260502195509 | 41 | 30 | 6.0 | 13.0 | 0.00 | 0.00 | 0.00 | 76 | 1015.0 |
| 20260502195009 | 41 | 35 | 6.0 | 13.0 | 0.00 | 0.00 | 0.00 | 77 | 1015.0 |
| 20260502194521 | 41 | 325 | 4.0 | 10.0 | 0.00 | 0.00 | 0.00 | 77 | 1015.1 |
| 20260502194009 | 41 | 296 | 4.0 | 14.0 | 0.00 | 0.00 | 0.00 | 76 | 1015.1 |
| 20260502193508 | 41 | 331 | 6.0 | 14.0 | 0.00 | 0.00 | 0.00 | 75 | 1015.1 |
| 20260502193024 | 41 | 317 | 4.0 | 13.0 | 0.00 | 0.00 | 0.00 | 74 | 1015.1 |
| 20260502192505 | 42 | 360 | 5.0 | 13.0 | 0.00 | 0.00 | 0.00 | 73 | 1015.1 |
| 20260502190508 | 42 | 346 | 3.0 | 12.0 | 0.00 | 0.00 | 0.00 | 73 | 1015.2 |
| 20260502190024 | 42 | 360 | 3.0 | 12.0 | 0.00 | 0.00 | 0.00 | 75 | 1015.2 |
| 20260502185508 | 42 | 352 | 6.0 | 11.0 | 0.00 | 0.00 | 0.00 | 75 | 1015.2 |
| 20260502185011 | 42 | 360 | 4.0 | 9.0 | 0.00 | 0.00 | 0.00 | 74 | 1015.2 |
| 20260502184525 | 42 | 360 | 4.0 | 11.0 | 0.00 | 0.00 | 0.00 | 74 | 1015.3 |
| 20260502184004 | 42 | 19 | 5.0 | 11.0 | 0.00 | 0.00 | 0.00 | 72 | 1015.3 |
| 20260502183504 | 42 | 333 | 6.0 | 11.0 | 0.00 | 0.00 | 0.00 | 72 | 1015.3 |
| 20260502183007 | 42 | 338 | 6.0 | 11.0 | 0.00 | 0.00 | 0.00 | 69 | 1015.3 |
| 20260502182506 | 43 | 349 | 4.0 | 11.0 | 0.00 | 0.00 | 0.00 | 71 | 1015.2 |
| 20260502182002 | 43 | 321 | 3.0 | 9.0 | 0.00 | 0.00 | 0.00 | 74 | 1015.3 |
| 20260502181518 | 43 | 310 | 2.0 | 12.0 | 0.00 | 0.00 | 0.00 | 73 | 1015.2 |
| 20260502181003 | 42 | 320 | 8.0 | 14.0 | 0.00 | 0.00 | 0.00 | 74 | 1015.3 |
| 20260502180503 | 43 | 322 | 3.0 | 14.0 | 0.00 | 0.00 | 0.00 | 79 | 1015.3 |